TimeAKST,TemperatureF,Dew PointF,Humidity,Sea Level PressureIn,VisibilityMPH,Wind Direction,Wind SpeedMPH,Gust SpeedMPH,PrecipitationIn,Events,Conditions,WindDirDegrees,DateUTC
12:16 AM,33.8,28.4,81,29.29,10.0,NE,8.1,-,N/A,,Scattered Clouds,50,2013-02-03 09:16:00
12:36 AM,33.8,28.4,81,29.29,10.0,NE,8.1,-,N/A,,Overcast,50,2013-02-03 09:36:00
12:56 AM,33.8,28.4,81,29.29,10.0,NE,5.8,-,N/A,,Overcast,50,2013-02-03 09:56:00
1:16 AM,33.8,28.4,81,29.28,10.0,NE,4.6,-,N/A,,Overcast,40,2013-02-03 10:16:00
1:36 AM,33.8,28.4,81,29.28,10.0,NE,4.6,-,N/A,,Overcast,50,2013-02-03 10:36:00
1:56 AM,33.8,28.4,81,29.27,10.0,NE,6.9,-,N/A,,Mostly Cloudy,50,2013-02-03 10:56:00
2:16 AM,33.8,28.4,81,29.26,10.0,NE,10.4,-,N/A,,Scattered Clouds,50,2013-02-03 11:16:00
2:36 AM,33.8,28.4,81,29.25,10.0,NE,11.5,-,N/A,,Partly Cloudy,50,2013-02-03 11:36:00
3:16 AM,33.8,28.4,81,29.24,10.0,East,6.9,-,N/A,,Mostly Cloudy,80,2013-02-03 12:16:00
3:36 AM,33.8,28.4,81,29.24,10.0,East,5.8,-,N/A,,Overcast,80,2013-02-03 12:36:00
3:56 AM,33.8,28.4,81,29.23,10.0,ENE,5.8,-,N/A,,Mostly Cloudy,70,2013-02-03 12:56:00
4:16 AM,32.0,28.4,87,29.22,10.0,East,5.8,-,N/A,,Scattered Clouds,90,2013-02-03 13:16:00
4:36 AM,32.0,28.4,87,29.22,10.0,Calm,Calm,-,N/A,,Mostly Cloudy,0,2013-02-03 13:36:00
4:56 AM,32.0,28.4,87,29.22,10.0,Calm,Calm,-,N/A,,Overcast,0,2013-02-03 13:56:00
5:16 AM,32.0,28.4,87,29.21,10.0,NE,5.8,-,N/A,,Overcast,40,2013-02-03 14:16:00
5:36 AM,33.8,28.4,81,29.20,10.0,Calm,Calm,-,N/A,,Mostly Cloudy,0,2013-02-03 14:36:00
5:56 AM,32.0,28.4,87,29.20,10.0,ENE,6.9,-,N/A,,Partly Cloudy,70,2013-02-03 14:56:00
6:16 AM,32.0,28.4,87,29.20,10.0,Calm,Calm,-,N/A,,Mostly Cloudy,0,2013-02-03 15:16:00
6:36 AM,32.0,28.4,87,29.20,10.0,NE,3.5,-,N/A,,Scattered Clouds,40,2013-02-03 15:36:00
6:56 AM,33.8,28.4,81,29.20,10.0,ENE,5.8,-,N/A,,Partly Cloudy,60,2013-02-03 15:56:00
7:16 AM,33.8,28.4,81,29.20,10.0,ENE,5.8,-,N/A,,Mostly Cloudy,70,2013-02-03 16:16:00
7:36 AM,33.8,28.4,81,29.20,10.0,ENE,9.2,-,N/A,,Mostly Cloudy,70,2013-02-03 16:36:00
7:56 AM,33.8,28.4,81,29.21,10.0,ENE,4.6,-,N/A,,Overcast,60,2013-02-03 16:56:00
8:16 AM,33.8,28.4,81,29.21,10.0,East,5.8,-,N/A,,Overcast,80,2013-02-03 17:16:00
8:36 AM,33.8,28.4,81,29.22,10.0,Calm,Calm,-,N/A,,Overcast,0,2013-02-03 17:36:00
8:56 AM,33.8,28.4,81,29.23,10.0,Calm,Calm,-,N/A,,Overcast,0,2013-02-03 17:56:00
9:16 AM,32.0,28.4,87,29.24,10.0,Calm,Calm,-,N/A,,Overcast,0,2013-02-03 18:16:00
9:36 AM,32.0,30.2,93,29.24,10.0,NE,5.8,-,N/A,,Overcast,40,2013-02-03 18:36:00
9:56 AM,32.0,28.4,87,29.24,10.0,South,3.5,-,N/A,,Overcast,170,2013-02-03 18:56:00
10:16 AM,32.0,28.4,87,29.25,10.0,East,3.5,-,N/A,,Overcast,80,2013-02-03 19:16:00
10:36 AM,32.0,30.2,93,29.25,10.0,Calm,Calm,-,N/A,,Overcast,0,2013-02-03 19:36:00
10:56 AM,32.0,30.2,93,29.26,10.0,Calm,Calm,-,N/A,,Overcast,0,2013-02-03 19:56:00
11:16 AM,32.0,30.2,93,29.26,10.0,Calm,Calm,-,N/A,,Overcast,0,2013-02-03 20:16:00
11:36 AM,33.8,30.2,87,29.27,10.0,Calm,Calm,-,N/A,,Overcast,0,2013-02-03 20:36:00
11:56 AM,33.8,30.2,87,29.27,10.0,ESE,4.6,-,N/A,,Overcast,120,2013-02-03 20:56:00
12:16 PM,33.8,30.2,87,29.28,10.0,ESE,4.6,-,N/A,,Overcast,120,2013-02-03 21:16:00
12:36 PM,33.8,30.2,87,29.28,10.0,Calm,Calm,-,N/A,,Overcast,0,2013-02-03 21:36:00
12:56 PM,33.8,30.2,87,29.28,10.0,East,4.6,-,N/A,,Overcast,100,2013-02-03 21:56:00
1:16 PM,33.8,30.2,87,29.29,10.0,East,4.6,-,N/A,,Overcast,100,2013-02-03 22:16:00
1:36 PM,33.8,30.2,87,29.29,10.0,ESE,6.9,-,N/A,,Overcast,110,2013-02-03 22:36:00
1:56 PM,33.8,30.2,87,29.29,10.0,ESE,4.6,-,N/A,,Overcast,110,2013-02-03 22:56:00
2:16 PM,33.8,30.2,87,29.29,10.0,East,4.6,-,N/A,,Overcast,80,2013-02-03 23:16:00
2:36 PM,33.8,30.2,87,29.29,10.0,East,5.8,-,N/A,,Overcast,100,2013-02-03 23:36:00
2:56 PM,33.8,30.2,87,29.29,10.0,East,6.9,-,N/A,,Overcast,100,2013-02-03 23:56:00
3:16 PM,33.8,30.2,87,29.29,10.0,East,5.8,-,N/A,,Overcast,90,2013-02-04 00:16:00
3:36 PM,35.6,32.0,87,29.30,10.0,East,6.9,-,N/A,,Scattered Clouds,100,2013-02-04 00:36:00
3:56 PM,35.6,32.0,87,29.30,10.0,ESE,6.9,-,N/A,,Partly Cloudy,110,2013-02-04 00:56:00
4:16 PM,35.6,32.0,87,29.30,10.0,East,6.9,-,N/A,,Clear,100,2013-02-04 01:16:00
4:36 PM,35.6,32.0,87,29.31,10.0,ESE,4.6,-,N/A,,Mostly Cloudy,110,2013-02-04 01:36:00
4:56 PM,35.6,32.0,87,29.32,10.0,Calm,Calm,-,N/A,,Overcast,0,2013-02-04 01:56:00
5:16 PM,33.8,32.0,93,29.32,10.0,Calm,Calm,-,N/A,,Overcast,0,2013-02-04 02:16:00
5:36 PM,33.8,30.2,87,29.33,10.0,Calm,Calm,-,N/A,,Overcast,0,2013-02-04 02:36:00
5:56 PM,32.0,30.2,93,29.33,10.0,Calm,Calm,-,N/A,,Overcast,0,2013-02-04 02:56:00
6:16 PM,30.2,30.2,100,29.34,5.0,Calm,Calm,-,N/A,,Overcast,0,2013-02-04 03:16:00
6:36 PM,30.2,28.4,93,29.35,2.5,Calm,Calm,-,N/A,,Overcast,0,2013-02-04 03:36:00
6:56 PM,30.2,30.2,100,29.35,1.5,Calm,Calm,-,N/A,,Overcast,0,2013-02-04 03:56:00
7:16 PM,28.4,28.4,100,29.36,0.8,Calm,Calm,-,N/A,,Overcast,0,2013-02-04 04:16:00
7:36 PM,28.4,28.4,100,29.37,0.5,Calm,Calm,-,N/A,,Mostly Cloudy,0,2013-02-04 04:36:00
7:56 PM,28.4,26.6,93,29.37,0.5,Calm,Calm,-,N/A,,Mostly Cloudy,0,2013-02-04 04:56:00
8:16 PM,28.4,26.6,93,29.38,0.5,Calm,Calm,-,N/A,,Mostly Cloudy,0,2013-02-04 05:16:00
8:36 PM,28.4,26.6,93,29.38,1.0,Calm,Calm,-,N/A,,Mostly Cloudy,0,2013-02-04 05:36:00
8:56 PM,26.6,24.8,93,29.39,0.2,Calm,Calm,-,N/A,,Overcast,0,2013-02-04 05:56:00
9:16 PM,26.6,24.8,93,29.40,0.2,Calm,Calm,-,N/A,,Overcast,0,2013-02-04 06:16:00
9:36 PM,26.6,24.8,93,29.41,0.5,East,4.6,-,N/A,,Overcast,80,2013-02-04 06:36:00
9:56 PM,28.4,26.6,93,29.42,0.8,Calm,Calm,-,N/A,,Overcast,0,2013-02-04 06:56:00
10:16 PM,26.6,24.8,93,29.43,1.0,Calm,Calm,-,N/A,,Overcast,0,2013-02-04 07:16:00
10:36 PM,24.8,24.8,100,29.43,3.0,East,3.5,-,N/A,,Overcast,80,2013-02-04 07:36:00
10:56 PM,26.6,26.6,100,29.44,10.0,ENE,3.5,-,N/A,,Overcast,60,2013-02-04 07:56:00
11:16 PM,26.6,26.6,100,29.44,10.0,ENE,4.6,-,N/A,,Overcast,70,2013-02-04 08:16:00
11:36 PM,26.6,24.8,93,29.45,10.0,Calm,Calm,-,N/A,,Overcast,0,2013-02-04 08:36:00
11:56 PM,26.6,24.8,93,29.46,10.0,ENE,3.5,-,N/A,,Mostly Cloudy,70,2013-02-04 08:56:00